Regional Weather Roundup
Issued by NWS

Home | Current Version | Previous Version | Text Only | Print | Product List | Glossary Off
Versions: 1 2 3 4 5 6 7 8 9 10 11 12 13 14 15 16 17 18 19 20 21 22 23 24 25 26 27 28 29 30 31 32 33 34 35 36 37 38 39 40 41 42 43 44 45 46 47 48 49 50

000
ASUS43 KFSD 102202
RWRSD

WEATHER ROUNDUP FOR SOUTH DAKOTA
NATIONAL WEATHER SERVICE SIOUX FALLS SD
400 PM CST SUN DEC 10 2017

NOTE: "FAIR" INDICATES FEW OR NO CLOUDS BELOW 12,000 FEET WITH NO
SIGNIFICANT WEATHER AND/OR OBSTRUCTIONS TO VISIBILITY.


SDZ001>005-009-010-012>017-102300-
NORTHWEST AND NORTH CENTRAL SOUTH DAKOTA

CITY           SKY/WX    TMP DP  RH WIND       PRES   REMARKS
BUFFALO          N/A     54  19  25 W17       30.04F
FAITH            N/A     54  18  24 W18       30.07S
MOBRIDGE       CLOUDY    47  28  47 NW8       30.01F
$$

SDZ012>016-024>037-041>051-057-063-072>074-102300-
SOUTHWEST AND SOUTH CENTRAL SOUTH DAKOTA

CITY           SKY/WX    TMP DP  RH WIND       PRES   REMARKS
RAPID CTY ARPT CLEAR     63   4   9 N15       30.14F
PIERRE         CLOUDY    56  22  26 NW12      30.05S
CUSTER         SUNNY     50   0  12 W10G18    30.21S
ELLSWORTH AFB  CLEAR     60   4  10 NW17G26   30.14S
PHILIP         CLEAR     60  11  14 W17G23    30.09S
PINE RIDGE     CLEAR     55  17  22 W13       30.19F
SPEARFISH      FAIR      54  10  17 W17       30.18S
WINNER         FAIR      61  19  19 W13       30.08S
$$

SDZ004>011-016>023-039-040-102300-
NORTHEAST SOUTH DAKOTA

CITY           SKY/WX    TMP DP  RH WIND       PRES   REMARKS
ABERDEEN       CLOUDY    43  26  51 NW7       30.03S
WATERTOWN      CLOUDY    37  29  72 W7        30.02R
BROOKINGS      CLEAR     37  28  70 W9        30.04R
SISSETON         N/A     37  26  64 CALM      30.01F
$$

SDZ017-020-022-023-036>040-048>070-102300-
SOUTHEAST SOUTH DAKOTA

CITY           SKY/WX    TMP DP  RH WIND       PRES   REMARKS
SIOUX FALLS    PTCLDY    41  30  65 W10       30.06R
HURON          CLEAR     44  30  57 NW7       30.05S
CHAMBERLAIN    CLEAR     53  26  34 NW6       30.07F
MITCHELL       CLEAR     46  31  55 NW6       30.07S
YANKTON        CLEAR     47  26  44 NW7       30.08S
$$

ABBREVIATIONS USED IN REMARKS
   TC - TEMPERATURE IN CELSIUS
  WCI - WIND CHILL INDEX
   HX - HEAT INDEX
  VSB - VISIBILITY





USA.gov is the U.S. government's official web portal to all federal, state and local government web resources and services.